TimeMDT,TemperatureF,Dew PointF,Humidity,Sea Level PressureIn,VisibilityMPH,Wind Direction,Wind SpeedMPH,Gust SpeedMPH,PrecipitationIn,Events,Conditions,WindDirDegrees,DateUTC
12:53 AM,43.0,23.0,45,30.16,10.0,ESE,9.2,-,N/A,,Clear,110,2012-10-29 06:53:00
1:53 AM,39.9,21.9,49,30.17,10.0,SE,8.1,-,N/A,,Clear,130,2012-10-29 07:53:00
2:53 AM,44.1,24.1,45,30.15,10.0,ESE,13.8,-,N/A,,Clear,120,2012-10-29 08:53:00
3:53 AM,37.9,25.0,60,30.17,10.0,ESE,9.2,-,N/A,,Clear,120,2012-10-29 09:53:00
4:53 AM,36.0,24.1,62,30.18,10.0,ESE,9.2,-,N/A,,Clear,120,2012-10-29 10:53:00
5:53 AM,37.9,26.1,62,30.18,10.0,ESE,5.8,-,N/A,,Clear,110,2012-10-29 11:53:00
6:53 AM,37.9,26.1,62,30.20,10.0,SSW,4.6,-,N/A,,Clear,200,2012-10-29 12:53:00
7:53 AM,34.0,24.1,67,30.25,10.0,Calm,Calm,-,N/A,,Clear,0,2012-10-29 13:53:00
8:53 AM,39.9,25.0,55,30.25,10.0,Calm,Calm,-,N/A,,Clear,0,2012-10-29 14:53:00
9:53 AM,45.0,27.0,49,30.26,10.0,Calm,Calm,-,N/A,,Clear,0,2012-10-29 15:53:00
10:53 AM,51.1,28.0,41,30.24,10.0,Calm,Calm,-,N/A,,Clear,0,2012-10-29 16:53:00
11:53 AM,54.0,27.0,35,30.22,10.0,SSW,3.5,-,N/A,,Clear,200,2012-10-29 17:53:00
12:53 PM,57.9,27.0,31,30.17,10.0,Calm,Calm,-,N/A,,Clear,0,2012-10-29 18:53:00
1:53 PM,61.0,28.0,29,30.14,10.0,West,3.5,-,N/A,,Clear,280,2012-10-29 19:53:00
2:53 PM,64.0,27.0,25,30.10,10.0,West,3.5,-,N/A,,Clear,270,2012-10-29 20:53:00
3:53 PM,64.0,25.0,23,30.11,10.0,West,9.2,-,N/A,,Clear,270,2012-10-29 21:53:00
4:53 PM,63.0,25.0,24,30.11,10.0,WNW,10.4,-,N/A,,Clear,300,2012-10-29 22:53:00
5:53 PM,61.0,25.0,25,30.11,10.0,West,5.8,-,N/A,,Clear,280,2012-10-29 23:53:00
6:53 PM,55.0,25.0,31,30.14,10.0,Calm,Calm,-,N/A,,Clear,0,2012-10-30 00:53:00
7:53 PM,48.9,21.9,35,30.18,10.0,Calm,Calm,-,N/A,,Clear,0,2012-10-30 01:53:00
8:53 PM,48.0,21.9,36,30.17,10.0,NE,3.5,-,N/A,,Clear,50,2012-10-30 02:53:00
9:53 PM,44.1,21.9,42,30.18,10.0,East,3.5,-,N/A,,Clear,80,2012-10-30 03:53:00
10:53 PM,41.0,21.0,45,30.18,10.0,East,5.8,-,N/A,,Clear,90,2012-10-30 04:53:00
11:53 PM,46.0,23.0,40,30.15,10.0,East,4.6,-,N/A,,Clear,90,2012-10-30 05:53:00